[Iaude] MPEC N25: 2024 ND [a=1.28,e=0.27,i=23.2,H=23.4]
    mpec at cfa.harvard.edu 
    mpec at cfa.harvard.edu
       
    Wed Jul  3 00:19:16 EDT 2024
    
    
  
M.P.E.C. 2024-N25                                  Issued 2024 July 3, 04:16 UT
     The Minor Planet Electronic Circulars contain information on unusual
         minor planets, routine data on comets and natural satellites,
         and occasional editorial announcements.  They are published
    on behalf of Division F of the International Astronomical Union by the
          Minor Planet Center, Smithsonian Astrophysical Observatory,
                          Cambridge, MA 02138, U.S.A.
			  
             Prepared using the Tamkin Foundation Computer Network
                              MPC at CFA.HARVARD.EDU
            URL https://www.minorplanetcenter.net/    ISSN 1523-6714
                                    2024 ND                                     
Observations:
     K24N00D* C2024 07 01.35191116 25 06.116-18 11 10.89         20.39wXEN025F51
     K24N00D  C2024 07 01.35996316 25 04.282-18 09 45.33         20.64wXEN025F51
     K24N00D  C2024 07 01.36781516 25 02.505-18 08 22.17         20.64wXEN025F51
     K24N00D  C2024 07 01.43952916 24 46.254-17 55 36.87         20.32GVEN025F51
     K24N00D  C2024 07 01.44017216 24 46.109-17 55 29.88         20.43GVEN025F51
     K24N00D KB2024 07 01.97996 16 22 59.84 -16 19 26.2          20.3 VqEN025Y66
     K24N00D KB2024 07 01.98082 16 22 59.62 -16 19 17.0          20.3 VqEN025Y66
     K24N00D KB2024 07 01.98169 16 22 59.45 -16 19 07.2          20.4 VqEN025Y66
     K24N00D KB2024 07 01.98253 16 22 59.24 -16 18 58.7          20.4 VqEN025Y66
     K24N00D |C2024 07 02.10981016 22 34.650-15 55 07.40         20.6 GVEN025807
     K24N00D |C2024 07 02.11430016 22 33.670-15 54 18.70         20.7 GVEN025807
     K24N00D |C2024 07 02.11864016 22 32.680-15 53 32.50         20.6 GVEN025807
     K24N00D  C2024 07 02.37566516 21 41.592-15 08 10.16         19.86GVEN025F51
     K24N00D  C2024 07 02.38750716 21 38.951-15 06 01.19         20.59GVEN025F51
     K24N00D 3C2024 07 02.39419816 21 37.430-15 04 47.60         20.37GVEN025T14
     K24N00D 3C2024 07 02.39649616 21 36.926-15 04 22.62         20.50GVEN025T14
     K24N00D 3C2024 07 02.39950716 21 36.262-15 03 49.97         20.46GVEN025T14
     K24N00D KC2024 07 03.15595316 19 11.68 -12 46 52.5          20.9 GVEN025H21
     K24N00D KC2024 07 03.15884516 19 11.04 -12 46 20.3          20.6 GVEN025H21
     K24N00D KC2024 07 03.16173416 19 10.47 -12 45 49.4          21.3 GVEN025H21
Observer details:
807 Cerro Tololo Observatory, La Serena.  Observers T. Linder, R. Holmes.
    0.61-m f/6.8 Ritchey-Chretien + CCD.
F51 Pan-STARRS 1, Haleakala.  Observers J. Herman, T. Lowe, P. Minguez, A.
    Schultz, I. Smith.  Measurers K. Chambers, T. de Boer, J. Fairlamb, H.
    Gao, M. Huber, C.-C. Lin, E. Magnier, Y. Ramanjooloo, R. Wainscoat, R.
    Weryk.  1.8-m Ritchey-Chretien + CCD.
H21 Astronomical Research Observatory, Westfield.  Observer R. Holmes.
    Measurers T. Linder, R. Holmes, L. Horn.  1.3-m f/4.0 astrograph + CCD.
T14 Canada-France-Hawaii Telescope, Maunakea.  Observers R. Wainscoat, A.
    Acohido, T. Burdullis.  Measurers R. Weryk, R. Wainscoat.  3.6-m f/4.1
    reflector + CCD.
Y66 Two-Meter Twin Telescope, TTT2, Teide.  Observer M. R. Alarcon.
    Measurer M. Serra-Ricart.  0.80-m f/4.38 reflector + CMO.
Orbital elements:
2024 ND                                                  Earth MOID = 0.1021 AU
Epoch 2024 Mar. 31.0 TT = JDT 2460400.5                 MPC                     
M 246.22092              (2000.0)            P               Q                  
n   0.68064585     Peri.   80.84233     +0.91763536     +0.05885809             
a   1.2799370      Node   275.04485     -0.22721499     +0.88909855             
e   0.2683007      Incl.   23.23912     +0.32606549     +0.45391574             
P   1.45           H   23.45          G   0.15           U   8                  
Residuals in seconds of arc
240701 F51  0.2-  0.1+    240701 Y66  0.1+  0.3+    240702 T14  0.1+  0.1+
240701 F51  0.1-  0.1+    240701 Y66  0.3-  0.2-    240702 T14  0.1+  0.1+
240701 F51  0.2+  0.2-    240702 807  0.0   0.1+    240702 T14  0.1+  0.0
240701 F51  0.3+  0.2-    240702 807  0.2+  0.4+    240703 H21  0.0   0.1-
240701 F51  0.2+  0.1-    240702 807  0.1-  0.2-    240703 H21  0.4-  0.4+
240701 Y66  0.1+  0.0     240702 F51  0.1+  0.3-    240703 H21  0.2+  0.3-
240701 Y66  0.3-  0.1-    240702 F51  0.2-  0.1+
Ephemeris:
2024 ND                  a,e,i = 1.28, 0.27, 23                  q = 0.9365
Date    TT    R. A. (2000) Decl.     Delta      r    Elong.  Phase     V
2024 06 03    18 11 17.0 -59 20 48   0.2936  1.2533   139.9    31.4    22.6
...
2024 06 18    17 17 10.3 -47 35 08   0.1891  1.1902   155.1    21.1    21.2
...
2024 06 26    16 44 34.9 -32 36 00   0.1502  1.1563   157.1    20.0    20.6
...
2024 07 02    16 22 56.8 -16 15 14   0.1350  1.1312   146.0    30.2    20.7
2024 07 03    16 19 41.9 -13 14 33   0.1340  1.1270   143.4    32.6    20.7
2024 07 04    16 16 33.8 -10 11 48   0.1333  1.1229   140.6    35.1    20.8
...
2024 07 10    16 00 10.0 +07 38 47   0.1382  1.0984   123.2    50.8    21.2
...
2024 07 18    15 44 10.0 +26 34 49   0.1628  1.0668   103.8    67.7    22.0
...
2024 08 02    15 24 58.5 +46 46 47   0.2321  1.0133    83.0    83.8    23.2
A. U. Tomatic                (C) Copyright 2024 MPC           M.P.E.C. 2024-N25
    
    
More information about the Iaude
mailing list